Bloomington, IN

4:47 PM EDT on August 21, 2017 (GMT -0400)
Monroe County

Weather History for KBMG - January, 2007

Change the Weather History Date:

Thursday, January 25, 2007

  Actual Average Record
Temperature  
Mean Temperature 26 °F 30 °F  
Max Temperature 32 °F 39 °F 57 °F (2017)
Min Temperature 19 °F 21 °F -2 °F (2008)
Degree Days  
Heating Degree Days 38 35  
Month to date heating degree days 897  
Since 1 July heating degree days 2970  
Cooling Degree Days 0 0  
Month to date cooling degree days 0  
Year to date cooling degree days 0  
Moisture  
Dew Point 18 °F    
Average Humidity 67    
Maximum Humidity 86    
Minimum Humidity 42    
Precipitation  
Precipitation 0.00 in 0.08 in 0.44 in (2004)
Month to date precipitation 2.78  
Year to date precipitation 2.78  
Sea Level Pressure  
Sea Level Pressure 30.21 in    
Wind  
Wind Speed 9 mph (WNW)    
Max Wind Speed 12 mph    
Max Gust Speed 20 mph    
Visibility 8 miles    
Events Snow    
T = Trace of Precipitation, MM = Missing Value Source: NWS Daily Summary

Daily Weather History Graph

Daily Weather History Graph

Search for Another Location

Airport or City:

Trip Planner

Search our weather history database for the weather conditions in past years. The results will help you decide how hot, cold, wet, or windy it might be!

Date:

Astronomy

Jan. 25, 2007 Rise Set
Actual Time 7:59 AM EST 5:58 PM EST
Civil Twilight 7:30 AM EST 6:27 PM EST
Nautical Twilight 6:57 AM EST 7:00 PM EST
Astronomical Twilight 6:26 AM EST 7:31 PM EST
Moon 11:30 AM EST (1/25) 12:41 AM EST (1/25)
Length of Visible Light 10h 57m
Length of Day
9h 59m
Waxing Crescent, 47% of the Moon is Illuminated
Jan 25
Waxing Crescent
Jan 25
First Quarter
Feb 2
Full
Feb 10
Last Quarter
Feb 17
New

Hourly Weather History & Observations

Time (EST) Temp. Windchill Dew Point Humidity Pressure Visibility Wind Dir Wind Speed Gust Speed Precip Events Conditions
12:53 AM 30.0 °F 21.7 °F 24.1 °F 79% 30.14 in 6.0 mi West 9.2 mph - N/A   Haze
1:00 AM 30.2 °F 21.9 °F 24.8 °F 80% 30.11 in 6.0 mi West 9.2 mph - N/A   Haze
1:53 AM 30.0 °F 22.4 °F 26.1 °F 85% 30.12 in 4.0 mi West 8.1 mph - N/A   Overcast
2:28 AM 30.2 °F 22.6 °F 26.6 °F 86% 30.11 in 2.5 mi WNW 8.1 mph - N/A   Overcast
2:48 AM 30.2 °F 22.6 °F 26.6 °F 86% 30.11 in 3.0 mi WNW 8.1 mph 18.4 mph N/A   Overcast
2:53 AM 30.0 °F 23.2 °F 26.1 °F 85% 30.14 in 3.0 mi Variable 6.9 mph - N/A   Overcast
3:10 AM 30.2 °F 21.9 °F 26.6 °F 86% 30.11 in 7.0 mi WNW 9.2 mph - N/A   Overcast
3:22 AM 30.2 °F 21.9 °F 26.6 °F 86% 30.12 in 7.0 mi NW 9.2 mph - N/A   Overcast
3:49 AM 30.2 °F 21.9 °F 24.8 °F 80% 30.12 in 10.0 mi WNW 9.2 mph - N/A   Overcast
3:53 AM 30.0 °F 21.7 °F 25.0 °F 82% 30.14 in 10.0 mi NW 9.2 mph - N/A   Overcast
4:06 AM 30.2 °F 21.9 °F 24.8 °F 80% 30.12 in 7.0 mi NW 9.2 mph - N/A   Overcast
4:53 AM 28.9 °F 19.8 °F 24.1 °F 82% 30.15 in 7.0 mi West 10.4 mph 17.3 mph N/A   Overcast
5:45 AM 28.4 °F 18.5 °F 19.4 °F 69% 30.13 in 6.0 mi NNW 11.5 mph 19.6 mph 0.00 in   Haze
5:53 AM 28.0 °F 19.3 °F 19.9 °F 72% 30.16 in 7.0 mi NNW 9.2 mph - 0.00 in   Overcast
6:53 AM 28.0 °F 18.6 °F 19.9 °F 72% 30.18 in 6.0 mi NW 10.4 mph - 0.00 in Snow Light Snow
7:53 AM 26.1 °F 17.6 °F 15.1 °F 63% 30.22 in 10.0 mi NW 8.1 mph - 0.00 in   Overcast
8:51 AM 24.8 °F 16.9 °F 14.0 °F 64% 30.21 in 9.0 mi WNW 6.9 mph - N/A   Partly Cloudy
8:53 AM 25.0 °F 18.1 °F 14.0 °F 63% 30.24 in 9.0 mi WNW 5.8 mph - N/A   Partly Cloudy
9:53 AM 26.1 °F 16.8 °F 14.0 °F 60% 30.27 in 10.0 mi NW 9.2 mph - N/A   Partly Cloudy
10:53 AM 28.0 °F 19.3 °F 10.0 °F 47% 30.28 in 10.0 mi NW 9.2 mph - N/A   Clear
11:53 AM 28.9 °F 19.8 °F 10.9 °F 47% 30.28 in 10.0 mi WNW 10.4 mph - N/A   Clear
12:53 PM 32.0 °F 24.2 °F 10.9 °F 42% 30.26 in 10.0 mi NNW 9.2 mph - N/A   Clear
1:53 PM 32.0 °F 23.0 °F 10.9 °F 42% 30.25 in 10.0 mi WNW 11.5 mph 17.3 mph N/A   Clear
2:53 PM 30.9 °F 22.2 °F 10.9 °F 43% 30.25 in 10.0 mi NW 10.4 mph 19.6 mph N/A   Clear
3:53 PM 30.9 °F 21.7 °F 10.9 °F 43% 30.26 in 10.0 mi NW 11.5 mph - N/A   Clear
4:53 PM 30.0 °F 21.1 °F 10.9 °F 45% 30.26 in 10.0 mi NW 10.4 mph - N/A   Clear
5:53 PM 27.0 °F 20.5 °F 10.9 °F 51% 30.27 in 10.0 mi Variable 5.8 mph - N/A   Clear
6:53 PM 26.1 °F 18.4 °F 12.9 °F 58% 30.29 in 10.0 mi West 6.9 mph - N/A   Clear
7:53 PM 24.1 °F 16.0 °F 14.0 °F 65% 30.31 in 10.0 mi West 6.9 mph - N/A   Clear
8:53 PM 23.0 °F 17.0 °F 12.9 °F 65% 30.30 in 10.0 mi WNW 4.6 mph - N/A   Clear
9:53 PM 21.9 °F 15.7 °F 12.9 °F 68% 30.30 in 10.0 mi West 4.6 mph - N/A   Clear
10:53 PM 21.0 °F 14.6 °F 12.9 °F 71% 30.29 in 10.0 mi West 4.6 mph - N/A   Clear
11:53 PM 19.0 °F 13.9 °F 12.9 °F 77% 30.29 in 10.0 mi WSW 3.5 mph - N/A   Clear